Lid_Strength_Index
0 0 -0 0 -0 -0 -0 -0 -0 -0 -0 -1 -1 -1 -1 -1 -0 3 6 4 3 -1 1 7 8 9 8 9 9 12 15 16 15 14 13 12 12 12 11 11 11 10 11 9 6
0 0 0 0 0 -0 -0 -0 -0 -0 -0 -0 -1 -1 -1 -1 4 6 1 -1 -2 -0 7 9 10 9 10 9 10 13 15 14 13 13 12 12 12 11 11 12 12 12 10 9 5
0 0 0 0 0 0 -0 -0 -0 -0 -0 -0 -0 -1 -1 1 7 7 -1 -1 -0 2 6 7 8 9 11 9 10 14 15 13 13 12 11 12 12 11 12 13 11 11 10 9 7
-0 -0 0 0 0 0 -0 -0 -0 0 0 0 -0 -1 -0 4 14 6 -1 -1 -1 4 7 8 9 10 11 11 11 12 12 12 11 11 11 12 12 12 12 11 11 10 10 10 8
-0 -0 -0 0 0 0 0 0 -0 0 0 0 -1 -1 3 10 8 5 -0 1 5 7 8 9 10 10 12 11 12 12 13 11 11 11 12 11 11 12 12 11 11 11 10 10 9
-0 -0 -0 -0 0 0 0 0 -0 0 0 0 -1 -0 7 12 5 4 5 6 6 8 9 9 10 10 11 12 12 12 12 11 11 11 11 12 13 12 11 11 11 11 11 11 10
0 0 -0 -0 -0 0 -0 -0 -0 0 0 -0 -1 3 8 9 4 5 6 7 7 8 9 8 9 10 11 12 11 12 12 12 12 12 11 12 12 12 12 12 11 11 12 11 11
0 1 0 -0 -0 -0 0 -0 -0 0 -0 -0 -1 5 10 6 5 6 6 7 7 7 7 8 8 9 10 10 11 13 14 15 13 12 12 12 14 11 12 12 12 12 13 12 11
0 0 0 -0 -0 0 0 -0 0 -0 -0 -0 5 7 11 3 6 5 6 7 7 8 7 7 8 11 11 13 14 14 17 16 14 12 13 13 14 12 13 13 13 13 13 12 12
1 0 -0 -0 -0 0 -0 -0 -0 1 1 1 3 11 9 9 6 5 7 7 8 9 9 9 11 13 14 14 17 17 17 16 16 14 14 14 14 12 12 13 13 13 13 13 12
1 1 1 -0 -0 -0 1 3 5 6 6 9 10 11 8 7 6 7 7 8 9 10 12 12 14 14 13 13 15 15 16 17 15 13 14 14 14 12 12 14 14 13 13 12 12
2 0 1 0 -0 -1 2 6 6 6 8 5 6 6 6 6 9 7 7 9 11 13 12 14 15 11 12 13 14 15 16 16 14 13 14 14 14 12 12 13 12 11 12 11 12
2 2 1 1 0 1 3 4 3 4 9 7 6 6 6 7 9 8 7 10 12 13 13 14 13 11 12 13 14 15 16 16 15 14 15 16 17 15 13 13 13 12 11 10 11
3 3 2 1 2 2 4 2 3 4 12 11 8 6 7 7 10 7 7 9 11 12 13 13 12 12 13 14 13 16 13 14 15 16 18 16 19 16 14 13 14 11 12 12 12
3 3 3 1 2 4 2 2 3 4 20 9 8 5 8 9 9 9 8 9 12 12 11 14 13 13 13 13 12 14 13 14 15 17 18 19 19 17 16 15 13 11 11 12 13
4 3 4 3 2 3 2 2 3 13 19 12 10 10 10 10 11 10 9 9 10 11 12 14 12 12 12 12 12 12 14 15 16 17 20 18 17 18 17 15 14 13 12 13 14
3 3 4 4 4 2 2 4 14 18 11 13 13 12 12 12 12 12 12 12 13 15 15 14 13 12 12 13 13 14 15 18 20 21 20 19 19 16 14 14 13 12 12 14 14
2 3 5 4 3 3 3 9 17 14 13 11 12 12 13 13 14 14 14 14 13 14 16 16 17 13 12 12 14 15 15 19 23 23 20 19 20 16 14 13 14 13 14 15 14
2 5 5 3 3 4 8 15 15 13 11 12 11 14 14 13 13 15 16 15 13 14 14 17 16 14 14 14 12 16 17 14 18 25 23 19 17 15 14 14 13 14 14 14 14
5 6 6 2 2 5 9 13 12 9 9 11 14 12 15 14 14 16 16 14 14 13 13 14 17 16 15 13 14 15 14 17 19 24 25 20 20 17 15 14 14 14 13 14 14
6 10 6 1 3 7 13 14 11 9 9 10 12 13 12 13 13 15 14 13 13 13 11 13 15 17 16 16 16 16 16 17 16 19 22 24 18 15 14 14 14 13 14 14 14
7 13 4 1 9 10 12 12 10 10 8 9 9 11 12 12 13 13 14 13 11 11 14 12 14 19 17 16 15 16 16 16 18 20 19 20 17 14 13 14 14 14 14 14 14
10 9 5 2 12 12 10 10 9 10 9 10 11 10 9 11 14 12 13 11 10 11 12 11 14 18 17 16 16 16 15 13 15 16 17 20 16 15 15 14 14 14 14 14 15
8 13 10 7 7 9 12 11 11 8 9 8 9 9 10 12 10 13 12 10 10 10 9 9 14 15 17 16 15 17 16 14 13 16 16 16 14 13 15 15 14 14 14 14 15
8 11 10 13 12 11 10 10 11 11 8 8 10 10 11 13 12 13 11 10 9 9 10 10 15 15 14 15 16 16 15 14 15 14 15 14 14 12 11 13 12 13 12 14 14
9 11 9 12 10 11 11 13 11 10 10 11 11 10 10 12 11 13 11 11 12 10 10 10 15 14 15 14 14 15 14 14 14 13 13 13 13 10 11 11 12 11 11 12 13
6 6 8 11 12 13 13 12 12 10 9 8 9 10 11 9 8 7 7 9 9 10 12 12 14 15 17 13 14 17 14 13 14 12 13 15 12 10 11 12 12 11 11 12 12